LogoCoinalyze
    Ad-Free Version ホーム マーケット一覧 資金調達率一覧
    先物データ
    • 集計データ (コイン一覧)
    • 個別チャート
    • 全体チャート
    アラート
    TA
    Bitcoin Ethereum BNB Ripple Tron ZCash Dogecoin Monero UNUS SED LEO Chainlink Cardano Stellar Lumens Bitcoin Cash Litecoin Hedera Cronos Polkadot Ethereum Classic Algorand Quant Cosmos VeChain Dash Bitcoin SV BitTorrent Terra Decred Tezos Iota The Graph THETA Decentraland NEO Chiliz MultiversX Golem Basic Attention Token Horizen Qtum 0x DigiByte Beam FTX Token RIF Token Holo FUNToken Zilliqa Ontology aelf Nano Enjin Coin Ravencoin Siacoin Mask Network Verge Status WINk Waves IoTeX iExec RLC Power Ledger Steem Kyber Network Crystal Lisk Ardor Ark IOST WOO Network WAX Icon Storj Wanchain Loopring Bitcoin Diamond AdEx Bitcoin Gold Augur OmiseGO NEM MonaCoin BitShares Ren Komodo V Systems Nuls Mithril SOLVE Maker Aion EOS Nebulas HedgeTrade Bread Fetch.ai TomoChain Polygon Fantom Waltonchain GXChain Bytom Metaverse ETP MaidSafeCoin QASH
    注文する:
    その他
    • API
    • ローソク足パターン
    • 寄付する
    • お問い合わせ
    • サイトマップ
    • Privacy Policy
    • Disclaimer
    • Theme:
    日本語
    • English
    • Français
    • Русский
    • Deutsch
    • Türkçe
    • Nederlands
    • Português (BR)
    • Español
    • 한국어
    • 简体中文
     
    ログイン / サインアップ
    Markets/ Pepe/ PEPE to EUR/ PEPEEUR Bitstamp
    Trades
    WL
    チャット
    統計
    ニュース
    ⦷
    AAA
    0.00000300 76289195.09999999 04:05:46
    0.00000300 37192100.00000000 04:05:46
    0.00000300 87187500.00000000 04:05:46
    0.00000300 87187500.00000000 04:05:46
    0.00000300 58.10000000 02:37:56
    0.00000300 287845100.00000000 02:37:56
    0.00000298 288568007.39999998 23:04:39
    0.00000298 288568007.39999998 23:04:39
    0.00000298 288568007.39999998 23:04:37
    0.00000298 288568007.39999998 23:04:13
    0.00000298 288568007.39999998 23:02:58
    0.00000298 288568007.39999998 23:02:57
    0.00000298 10898400.00000000 23:02:57
    0.00000298 288568007.39999998 23:02:48
    0.00000298 288568007.39999998 23:00:19
    0.00000298 288568007.39999998 23:00:11
    0.00000298 10898400.00000000 23:00:11
    0.00000298 288568007.39999998 22:59:41
    0.00000298 288568007.39999998 22:58:46
    0.00000298 79241711.80000000 22:58:45
    0.00000298 157446300.50000000 22:58:43
    0.00000298 108866458.70000000 22:58:41
    0.00000298 10898400.00000000 22:58:41
    0.00000298 288568007.39999998 22:58:40
    0.00000298 10898400.00000000 22:58:40
    0.00000298 288568007.39999998 22:54:48
    0.00000298 10898400.00000000 22:54:48
    0.00000298 67259222.59999999 22:52:44
    0.00000298 288568007.39999998 22:52:43
    0.00000298 10898400.00000000 22:52:43
    0.00000298 240730128.80000001 22:50:52
    0.00000298 10898400.00000000 22:50:52
    0.00000299 288497715.80000001 22:50:47
    0.00000299 288497715.80000001 22:50:46
    0.00000299 288497715.80000001 22:50:46
    0.00000296 289476948.89999998 22:42:10
    0.00000296 10898400.00000000 22:42:10
    0.00000297 288611675.69999999 22:32:13
    0.00000298 177556014.59999999 22:24:41
    0.00000298 185538728.59999999 22:24:36
    0.00000298 289402230.60000002 22:24:35
    0.00000298 289402230.60000002 22:24:35
    0.00000298 289402230.60000002 22:24:31
    0.00000298 289405889.30000001 22:18:20
    0.00000298 289405889.30000001 22:18:20
    0.00000298 10898400.00000000 22:18:20
    0.00000299 288446683.39999998 22:11:44
    0.00000299 288446683.39999998 22:11:40
    0.00000299 197196324.90000001 22:08:30
    0.00000299 288469085.60000002 22:08:22
    0.00000299 288469085.60000002 22:08:22
    0.00000299 288469085.60000002 22:08:21
    0.00000299 288485226.10000002 22:04:59
    0.00000299 288485226.10000002 22:04:49
    0.00000299 288485226.10000002 22:03:31
    0.00000299 288485226.10000002 22:03:30
    0.00000298 289453320.10000002 22:02:07
    0.00000298 288687921.89999998 22:00:04
    0.00000298 288687921.89999998 21:59:30
    0.00000298 289543230.19999999 21:59:06
    0.00000299 288553695.19999999 21:48:34
    0.00000299 288553695.19999999 21:48:08
    0.00000299 288553695.19999999 21:47:17
    0.00000299 288551205.69999999 21:46:45
    0.00000299 288551205.69999999 21:46:45
    0.00000299 288551205.69999999 21:46:45
    0.00000298 289543230.19999999 21:39:36
    0.00000298 289543230.19999999 21:38:40
    0.00000298 289543230.19999999 21:38:01
    0.00000298 289543230.19999999 21:38:00
    0.00000298 289543230.19999999 21:37:56
    0.00000298 289543230.19999999 21:37:56
    0.00000298 289543230.19999999 21:36:06
    0.00000298 289543230.19999999 21:35:32
    0.00000298 289540731.89999998 21:33:28
    0.00000299 124900267.30000000 21:28:30
    0.00000299 98443570.09999999 21:28:29
    0.00000299 36274393.20000001 21:28:27
    0.00000299 39693648.80000000 21:28:25
    0.00000299 51549994.80000000 21:28:24
    0.00000299 288571123.30000001 21:28:13
    0.00000299 288571123.30000001 21:28:01
    0.00000299 288571123.30000001 21:27:59
    0.00000299 288571123.30000001 21:27:59
    0.00000299 288571123.30000001 21:27:58
    0.00000299 288578593.10000002 21:22:48
    0.00000298 262154754.50000000 21:19:33
    0.00000298 27385977.40000000 21:19:29
    0.00000298 289540731.89999998 21:19:28
    0.00000298 289521996.19999999 21:19:27
    0.00000298 289521996.19999999 21:16:15
    0.00000298 253552108.09999999 21:16:15
    0.00000298 289521996.19999999 21:16:08
    0.00000298 289521996.19999999 21:14:52
    0.00000298 289521996.19999999 21:14:26
    0.00000298 289521996.19999999 21:14:26
    0.00000298 288696320.19999999 21:11:57
    0.00000298 288696320.19999999 21:11:55
    0.00000298 287625693.89999998 21:11:55
    0.00000298 11601500.00000000 21:11:55
    ログアウト
    AAA
    ヘルプ
    🙂 🤣 😎 🤗 😛 😉 😜 🤑 🤔 😑 😴 😕 🙃 😲 😇 🙁 😢 😬 😟 😠 🕺 🏃 💪 ✌ 👌 👍 👎 👏 👋 🤝 🍺 🍻 🐋 🐟 🦈 🗽 🚄 ✈ 🛑 🚀 🏦 🌚 ⭐ 🌞 ⚡ 🏆 💰 💲 🔨 ❓ ❗ 💯 🔶 🏁
    ☺
    ログイン または サインアップ してチャット
    24時間
    変化
    -1.32%
    出来高
    61,665,753,492
    最高値
    0.00000308
    最安値
    0.00000296
    7日間
    変化
    -8.26%
    出来高
    139,387,082,624
    最高値
    0.00000343
    最安値
    0.00000291
    30日間
    変化
    +19.52%
    出来高
    984,127,547,227
    最高値
    0.00000388
    最安値
    0.00000219
    Pepe price rallies 25% as whale demand and futures interest surge
    Key takeaways Pepe has gained 25% this week, including a combined 22% advance over the previous two days. Seven whale transactions worth more than $1 million each occurred Thursday, the highest...
    coinjournal.net
    Aug 21, 2026 08:41
    PEPE Supply on Exchanges Just Took a Massive Hit – What’s Next?
    A drop in PEPE exchange balances has added to bullish expectations despite muted trader interest.
    cryptopotato.com
    Aug 6, 2026 20:02
    PEPE Exchange Outflows Hit Nearly 2-Year High as Whales Accumulate
    Pepe (PEPE) recorded its largest single-day exchange outflow since November 2024, with 4.54 trillion tokens leaving trading platforms, signaling that holders are moving supply away from immediate...
    beincrypto.com
    Aug 6, 2026 04:57
    Meme Coin Based on White House Shooter Conspiracy Rallies 320%
    $HENRY surged 300% after a 2023 Pepe tweet appeared to name the White House shooter, fueling a viral time-travel meme. The post Meme Coin Based on White House Shooter Conspiracy Rallies 320%...
    beincrypto.com
    Apr 27, 2026 16:11
    PEPE surges 4% as market sentiment improves, eyes Key resistance breakout
    Key takeaways Pepe extends gains on Wednesday, stretching its rally from the 50-day EMA. Derivatives data show heightened retail activity as risk-on sentiment returns to the market. Pepe (PEPE) is...
    coinjournal.net
    Apr 22, 2026 11:44
    Why The PEPE Price Could Stage A 55X Rally To Reach New $0.0001 ATH
    The PEPE price has now started to edge back into bullish conversations after the recent inflows into the crypto market. The last time PEPE’s weekly chart printed the kind of structure now...
    newsbtc.com
    Apr 21, 2026 15:30
    Pepe (PEPE) surges 9%, drawing interest from whales
    Key takeaways PEPE is up 9% in the last 24 hours, making it one of the best performers among the top 50 cryptocurrencies by market cap. The rally comes amid renewed interest from whales and retail...
    coinjournal.net
    Apr 16, 2026 07:40
    Murad Says SPX6900 (SPX) Is Primed for a Rally — Is He Right This Time?
    Crypto influencer Murad Mahmudov claims SPX6900 (SPX) is stabilizing at the same market cap level where Dogecoin (DOGE) and Pepe (PEPE) consolidated before their explosive rallies. The...
    beincrypto.com
    Apr 5, 2026 21:36
    The Shiba Inu Of This Cycle: Analyst Shares Why It Is Better To Buy PEPE Now
    In the bull market cycle of 2021-2022, the Shiba Inu meme coin made waves in a way that changed the face of meme coins forever. This came after Dogecoin’s initial 36,000% rally, and Shiba Inu...
    newsbtc.com
    Apr 4, 2026 07:30
    PEPE Explodes by 18% Amid Altcoin Rally, BTC Tapped $74K: Market Watch
    The frog-themed meme coin is today's biggest gainer, followed by TAO, DOT, and BONK.
    cryptopotato.com
    Mar 16, 2026 10:56
    Should PEPE traders brace for volatility as short squeeze potential builds?
    The memecoin market has seen its collective market capitalization drop by 48% over the past year, and 6.9% over the past month, according to CoinMarketCap. According to Glassnode, the memecoin...
    ambcrypto.com
    Mar 7, 2026 18:00
    チャットでコマンドを入力するだけです。 nick1を実際のニックネームに置き換えてください
    • /ignore nick1 チャットユーザーを無視する
    • /unignore nick1 チャットユーザーを無視しない
    • /ignorelist 無視したチャットユーザーを表示する